Regional Weather Roundup
Issued by NWS Wakefield, VA

Home | Current Version | Previous Version | Graphics & Text | Print | Product List | Glossary On
Versions: 1 2 3 4 5 6 7 8 9 10 11 12 13 14 15 16 17 18 19 20 21 22 23 24 25 26 27 28 29 30 31 32 33 34 35 36 37 38 39 40 41 42 43 44 45 46 47 48 49 50
000
ASUS41 KAKQ 280610
RWRAKQ

REGIONAL WEATHER ROUNDUP
NATIONAL WEATHER SERVICE WAKEFIELD VA
100 AM EST SAT FEB 28 2015

Note: "fair" indicates few or no clouds below 12,000 feet with no
significant weather and/or obstructions to visibility. * = Denotes
station may not report precipitation (e.g., rain,snow,etc.),
thunder or fog.

VAZ042-051-052>054-056-280700-
NORTHERN VIRGINIA

CITY           SKY/WX    TMP DP  RH WIND       PRES   REMARKS
WASH NATIONAL  PTCLDY    24   3  40 N9        30.71R
DULLES         CLEAR     19   1  45 N10       30.68R WCI   7
FORT BELVOIR   CLEAR     22   0  37 VRB3      30.70R
QUANTICO       CLEAR     23   4  44 N7        30.72R
FREDERICKSBRG* CLEAR     25   6  44 N6        30.70R
STAFFORD*      CLEAR     22   0  38 N7        30.73R
WARRENTON      CLEAR     20   9  63 N6        30.67S
CULPEPER*      CLEAR     19   3  49 NE3       30.67R
MANASSAS*      CLEAR     19   7  58 N3        30.69R
LEESBURG*      CLEAR     21   5  49 N7        30.68S
WINCHESTER     CLEAR     19  -4  35 NW5       30.65S
FRONT ROYAL*   FAIR      18   1  49 N6        30.64S
LURAY*         FAIR      21   9  58 N5        30.62R
$$

VAZ048-049-060>072-079>083-280700-
CENTRAL AND SOUTH CENTRAL VIRGINIA

CITY           SKY/WX    TMP DP  RH WIND       PRES   REMARKS
RICHMOND       MOCLDY    26  13  57 NE8       30.65R
CHESTERFIELD*  FAIR      27  10  50 NE5       30.65R
PETERSBURG*    PTCLDY    26  20  80 NE5       30.64S
HANOVER        MOCLDY    25   9  50 VRB6      30.67R
TAPPAHANNOCK*  PTCLDY    23  14  68 CALM      30.68R
QUINTON*       CLOUDY    24  19  83 N5        30.66R
CHARLOTTSVILLE CLEAR     22   6  50 E3        30.63R
GORDONSVILLE*  FAIR      20   6  52 NE3       30.65R
ORANGE*        CLEAR     23   9  54 N7        30.67R
LOUISA*        CLOUDY    25   7  46 NE5       30.64R
BUMPASS*       MOCLDY    24   6  46 CALM      30.66R
FARMVILLE*     CLEAR     26  15  63 N5        30.62R
CREWE*         FAIR      26  16  66 CALM      30.62R
FORT PICKETT*  FAIR      25  17  74 NE3       30.62R
CHASE CITY*    FAIR      28  25  86 CALM      30.62R
CLARKSVILLE*   CLOUDY    30  27  86 NE5       30.61R
SOUTH HILL*    CLEAR     25  22  90 CALM      30.68R
LAWRENCEVILLE* FAIR      26  23  89 CALM      30.62R
EMPORIA*       PTCLDY    27  23  86 CALM      30.65R
$$

VAZ088>098-280700-
SOUTHEAST VIRGINIA

CITY           SKY/WX    TMP DP  RH WIND       PRES   REMARKS
NORFOLK        CLEAR     29  20  69 NE15      30.63R WCI  18
VIRGINIA BEACH CLEAR     30  21  69 N10       30.63R WCI  21
NORFOLK NAVAL  CLEAR     31  18  58 NE14      30.65R WCI  21
WEST POINT*    PTCLDY    23  20  89 N5        30.69R
SALUDA*        FAIR      22  15  76 N3        30.66R
NEWPORT NEWS   CLEAR     28  17  63 NE6       30.65R
LANGLEY AFB    CLEAR     27  15  61 NE12      30.64R WCI  17
FORT EUSTIS    CLEAR     26  24  94 NE1       30.63R
WILLIAMSBURG*  CLEAR     27  23  86 CALM      30.66R
HR EXEC AP*    FAIR      27  19  74 NE5       30.66R
FRANKLIN*      CLEAR     23  22  93 CALM      30.65R
WAKEFIELD      CLEAR     24  21  88 CALM      30.64R FOG
$$

VAZ020-022-025-037-045-280700-
WEST CENTRAL AND SOUTHWEST VIRGINIA

CITY           SKY/WX    TMP DP  RH WIND       PRES   REMARKS
STAUNTON*      CLEAR     16   3  56 N3        30.61R
WAYNESBORO*    FAIR      16   3  57 CALM      30.57S
HOT SPRINGS VA PTCLDY     9   2  72 NW8       30.36F
LYNCHBURG      CLOUDY    24  12  60 NE5       30.60R
DANVILLE       CLEAR     27   7  42 NE5       30.61R
SOUTH BOSTON*  CLOUDY    29  20  67 NE5       30.63R
MARTINSVILLE   CLEAR     26  10  52 N3        30.61S
ROANOKE        CLEAR     21   4  47 W5        30.60S
BLACKSBURG     PTCLDY    11   3  70 CALM      30.55R
DUBLIN*        CLEAR     17   7  67 CALM      30.52S
MARION*        PTCLDY    10   6  84 CALM      30.49S
HILLSVILLE*    CLEAR     15   8  72 NE3       30.46R
RICHLANDS*     FAIR      14   5  67 E5        30.46S
WISE*          PTCLDY    14   7  73 NE3       30.47S
ABINGDON*      CLEAR     15  10  79 CALM      30.49S
$$

MDZ021>025-VAZ099-100-280700-
SOUTHERN MARYLAND AND THE DELMARVA PENINSULA

CITY           SKY/WX    TMP DP  RH WIND       PRES   REMARKS
PATUXENT RIVER CLEAR     24   1  36 N14       30.68R WCI  12
BAY BRIDGE APT   N/A     23   5  46 NW10      30.69R WCI  12
LEONARDTOWN    CLEAR     25   3  39 NW5       30.69R
DOVER          CLEAR     20   7  56 NW12      30.66R WCI   8
GEORGETOWN     PTCLDY    23   7  50 CALM      30.67R
EASTON         CLEAR     24   8  51 N6        30.71R
CAMBRIDGE      CLEAR     27  10  50 N6        30.67R
SALISBURY      PTCLDY    18  13  80 S3        30.67R
OCEAN CITY     CLEAR     17  12  80 NW3       30.67R
WALLOPS ISLAND CLEAR     19  14  81 N3        30.67R
ACCOMACK*      CLEAR     19  14  79 CALM      30.66R
$$

NCZ012>017-030>032-280700-
NORTH CENTRAL AND EASTERN NORTH CAROLINA

CITY           SKY/WX    TMP DP  RH WIND       PRES   REMARKS
ROANOKE RAPIDS FAIR      27  27 100 NE3       30.63R
RALEIGH        CLEAR     29  18  63 NE6       30.59R
ELIZABETH CITY CLEAR     31  24  75 NE12      30.62R WCI  22
AHOSKIE*       CLEAR     26  22  87 N5        30.63S
EDENTON*       CLEAR     27  24  89 N6        30.61R
CURRITUCK*     CLEAR     32  22  68 NE8       30.62R
KILL DEVIL HLS CLEAR     33  29  83 N10       30.58R
MANTEO         CLEAR     34  28  80 N10       30.59R
CAPE HATTERAS  MOCLDY    36  32  85 N9G18     30.54S
TARBORO*       FAIR      28  25  88 N3        30.62S
GOLDSBORO      CLEAR     31  30  98 NE8       30.56R
WASHINGTON     CLEAR     29  26  89 NE5       30.60R
GREENVILLE     CLEAR     30  27  86 NE5       30.60R
NEW BERN       CLEAR     30  27  88 N9        30.58S
WILMINGTON     PTCLDY    35  30  82 NE8       30.54R
$$

VAZ048-280700-
ELSEWHERE

CITY           SKY/WX    TMP DP  RH WIND       PRES   REMARKS
HARRISBURG PA  CLEAR     18   0  45 NW8       30.67R
BALTIMORE      PTCLDY    19   0  43 NW3       30.68R
ANNAPOLIS      CLEAR     22   4  46 NW8       30.69R
ANDREWS AFB    CLEAR     20   3  47 N10       30.68R WCI   9
PHILADELPHIA   CLEAR     22   5  48 NW8       30.67R
HENDERSON NC   CLOUDY    27  23  85 CALM      30.61R
GREENSBORO     CLEAR     28  11  48 NE8       30.55R
ROCKY MOUNT    CLEAR     27  24  89 NE7       30.61R
$$

VAZ100-280700-
MARINE

STATION/POSITION TIME  TEMP    WIND        PRES    WAVE   SWELL
                       AIR SEA DIR/SP/G            HT/PER HT/PER
                 (UTC) (F)     (DEG/KT/KT) (MB)    (FT/S) (FT/S)
BRANDYWINE LGT   0600   26 29  350/ 20/ 22 1037.6F
CAPE MAY NJ      0600   25 31  350/  7/ 13 1037.2F
LEWES DE         0600   26 30  340/  9/ 11 1037.6R
15NM E FENWICK I 0600   28 36              1036.6R
OCEAN-CITY-INLET 0600   24 32  330/  5/  6 1037.4R
WACHAPREAGUE VA  0600   23 33  360/  4/  6 1038.0S
THOMAS POINT MD  0600   23 31  320/ 10/ 12 1040.3R
COVE POINT MD    0600   24     350/ 18/ 21 1038.5R
SOLOMONS ISLAND  0600      33                N/A
BISHOPS HEAD MD  0600   23 31  350/  5/  8 1038.2
CAMBRIDGE MD     0600   23 32  330/  6/  9 1038.7R
LEWISETTA VA     0600   26 32              1038.7R
RAPPAHANNOCK LGT 0600           30/ 12/ 14 1038.4S
STINGRAY PT      0600   29 32   40/ 12/ 14   N/A     2/ 2
YORK RVR RNG VA  0600   29      30/ 13/ 14 1037.2R
YORKTOWN VA      0600   26 32   20/  5/  7 1037.7R
DOMINION TERM VA 0600   28      50/  3/  6 1037.6R
KIPTOPEKE VA     0600      37   20/  5/  8   N/A
CHES BAY BRIDGE  0600   29 32   20/ 13/ 15 1037.0R
CAPE HENRY VA    0600   30      20/ 15/ 17 1036.0R
CHESAPEAKE LGHT  0500   31      20/ 19/ 20 1036.4R
WILLOUBY STN VA  0600   29      30/ 14/ 17 1038.0R
S CRANEY ISL VA  0600           30/ 11/ 13 1037.3F
CAPE HENRY BUOY  0600      35                N/A     5/10   2/11
1ST LANDING BUOY 0600   30 33   20/ 14/ 16 1037.1R   2/ 3
OFFSHORE WE BUOY 0500      37                N/A     5/11   3/11
64NM E OF VA BCH 0600   39 59   10/ 19/ 23 1034.9R   7/10   5/10
DUCK PIER NC     0600   34 35   20/ 19/ 20 1035.1R
44100 DUCK FRF   0600      36                N/A     6/11   2/11
44056 DUCK FRF   0500      35                N/A     5/11   2/11
OREGON INLET NC  0600   35 38  350/ 14/ 17 1034.9
HATTERAS NC      0600   37 41   10/ 18/ 22 1034.4R
CAPE LOOKOUT NC  0500   36      20/ 14/ 17 1033.6R
$$



USA.gov is the U.S. government's official web portal to all federal, state and local government web resources and services.